Tracking 18852 objects as of 24-Nov-2017
HD Live streaming from Space Station
objects crossing your sky now

FENGYUN 1C DEB

Track FENGYUN 1C DEB now!
10-day predictions


NORAD ID: 30540
Int'l Code: 1999-025AKE
Perigee: 805.7 km
Apogee: 907.8 km
Inclination: 99.0 °
Period: 101.9 minutes
Semi major axis: 7227 km
RCS: 0.0143 m2 (small)
Launch date: May 10, 1999
Source: People's Republic of China (PRC)
Launch site: Taiyaun Space Center, China (TSC)

Note: This is SATELLITE DEBRIS
aabbcc
Your satellite tracking list
Your tracking list is empty




NASA's NSSDC Master Catalog

Two Line Element Set (TLE):
1 30540U 99025AKE 17327.66418645  .00000915  00000-0  50386-3 0  9997
2 30540  98.9793  25.1129 0070672 170.5215 341.3429 14.12853074556469
Source of the keplerian elements: AFSPC